Location: Kruen
(47.5000°N, 11.5000°E)
Time: 17:50:33
(UTC+01:00)

Envisat - Visible Passes

Search period start: 14 February 2026 00:00
Search period end: 24 February 2026 00:00
Orbit: 761 x 763 km, 98.4° (Epoch: 13 February)

Date Brightness Start Highest point End Pass type
(mag) Time Alt. Az. Time Alt. Az. Time Alt. Az.
17 Feb 5.7 03:38:42 10° N 03:38:48 10° N 03:38:48 10° N visible
19 Feb 5.5 04:02:20 10° N 04:02:41 12° N 04:02:41 12° N visible
20 Feb 5.6 03:24:10 10° N 03:24:33 12° N 03:24:33 12° N visible
21 Feb 5.9 02:46:22 10° NNE 02:46:25 10° NNE 02:46:25 10° NNE visible
21 Feb 5.3 04:26:10 10° NNW 04:26:33 12° NNW 04:26:33 12° NNW visible
22 Feb 5.4 03:47:43 10° N 03:48:25 14° N 03:48:25 14° N visible
23 Feb 5.6 03:09:41 10° NNE 03:10:18 14° NNE 03:10:18 14° NNE visible
23 Feb 5.3 04:50:21 10° NNW 04:50:25 10° NNW 04:50:25 10° NNW visible
